CW1490 Weather Reports


time (UTC)temp
C
wind
direction
speed
KPH
gust
KPH
rain 1hr
cm
rain 24hr
cm
rain mn
cm
humidity
%
barometer
mb
20260505094006 10 247 4.8 12.9 0.00 0.00 0.00 78 1008.8
20260505093506 10 236 8.0 12.9 0.00 0.00 0.00 77 1008.7
20260505093026 10 218 4.8 12.9 0.00 0.00 0.00 77 1008.7
20260505092507 10 224 6.4 12.9 0.00 0.00 0.00 77 1008.6
20260505092006 11 218 4.8 16.1 0.00 0.00 0.00 76 1008.6
20260505091528 11 231 6.4 16.1 0.00 0.00 0.00 76 1008.6
20260505091007 11 219 8.0 14.5 0.00 0.00 0.00 77 1008.7
20260505090510 11 207 6.4 16.1 0.00 0.00 0.00 77 1008.7
20260505090024 10 207 6.4 16.1 0.00 0.00 0.00 78 1008.8
20260505085508 10 282 3.2 12.9 0.00 0.00 0.00 77 1008.9
20260505085015 10 205 3.2 12.9 0.00 0.00 0.00 77 1008.9
20260505084528 10 224 4.8 11.3 0.00 0.00 0.00 78 1009.0
20260505084003 10 205 1.6 8.0 0.00 0.00 0.00 77 1009.1
20260505083504 10 195 3.2 14.5 0.00 0.00 0.00 76 1009.1
20260505083020 11 217 3.2 14.5 0.00 0.00 0.00 75 1009.0
20260505082504 11 221 3.2 12.9 0.00 0.00 0.00 74 1009.0
20260505082006 11 217 3.2 19.3 0.00 0.00 0.00 74 1008.9
20260505081522 11 200 4.8 19.3 0.00 0.00 0.00 74 1008.9
20260505081010 11 232 8.0 19.3 0.00 0.00 0.00 74 1008.8
20260505080508 11 215 8.0 19.3 0.00 0.00 0.00 74 1008.8
20260505080041 11 209 4.8 17.7 0.00 0.00 0.00 74 1008.7
20260505075507 11 205 4.8 20.9 0.00 0.00 0.00 73 1008.8
20260505075008 11 227 9.7 20.9 0.00 0.00 0.00 73 1008.7
20260505074528 11 232 8.0 19.3 0.00 0.00 0.00 73 1008.9
20260505074010 11 207 11.3 19.3 0.00 0.00 0.00 73 1008.9
20260505073508 11 232 9.7 17.7 0.00 0.00 0.00 73 1008.9
20260505073027 11 212 6.4 16.1 0.00 0.00 0.00 73 1008.9
20260505072511 11 236 8.0 17.7 0.00 0.00 0.00 72 1008.9
20260505072008 11 213 9.7 17.7 0.00 0.00 0.00 72 1008.9
20260505071522 11 211 6.4 16.1 0.00 0.00 0.00 72 1009.0
20260505071013 11 219 8.0 16.1 0.00 0.00 0.00 72 1009.0
20260505070511 11 229 6.4 14.5 0.00 0.00 0.00 72 1009.0
20260505070023 11 236 6.4 14.5 0.00 0.00 0.00 72 1009.0
20260505065507 11 238 6.4 16.1 0.00 0.00 0.00 72 1009.0
20260505065015 11 252 6.4 16.1 0.00 0.00 0.00 71 1009.0
20260505064527 11 243 6.4 17.7 0.00 0.00 0.00 71 1009.0
20260505064008 11 243 9.7 17.7 0.00 0.00 0.00 71 1009.0
20260505063511 11 221 6.4 17.7 0.00 0.00 0.00 70 1009.0
20260505063009 12 237 6.4 17.7 0.00 0.00 0.00 70 1009.0
20260505062504 12 229 9.7 17.7 0.00 0.00 0.00 70 1009.0
20260505062005 12 217 11.3 19.3 0.00 0.00 0.00 69 1009.1
20260505061512 12 193 9.7 19.3 0.00 0.00 0.00 69 1009.1
20260505061003 12 207 9.7 17.7 0.00 0.00 0.00 69 1009.2
20260505060507 12 190 11.3 17.7 0.00 0.00 0.00 68 1009.2
20260505060011 12 265 9.7 19.3 0.00 0.00 0.00 68 1009.3
20260505055503 12 232 11.3 19.3 0.00 0.00 0.00 68 1009.3
20260505055003 12 194 8.0 16.1 0.00 0.00 0.00 68 1009.4
20260505054505 12 216 8.0 17.7 0.00 0.00 0.00 67 1009.4
20260505054004 12 232 9.7 17.7 0.00 0.00 0.00 67 1009.3
20260505053503 12 205 9.7 19.3 0.00 0.00 0.00 67 1009.3
20260505053007 12 218 11.3 19.3 0.00 0.00 0.00 68 1009.3
20260505052503 12 223 6.4 12.9 0.00 0.00 0.00 68 1009.2
20260505052004 12 225 4.8 17.7 0.00 0.00 0.00 68 1009.3
20260505051522 12 173 4.8 17.7 0.00 0.00 0.00 67 1009.3
20260505051005 12 231 6.4 16.1 0.00 0.00 0.00 66 1009.4
20260505050503 12 212 3.2 9.7 0.00 0.00 0.00 65 1009.4
20260505041510 13 224 8.0 16.1 0.00 0.00 0.00 63 1009.2
20260505041006 13 227 8.0 16.1 0.00 0.00 0.00 62 1009.2
20260505040506 13 212 8.0 16.1 0.00 0.00 0.00 62 1009.2
20260505040016 13 191 6.4 16.1 0.00 0.00 0.00 62 1009.2
20260505035507 13 219 6.4 25.7 0.00 0.00 0.00 62 1009.1
20260505035007 13 207 6.4 25.7 0.00 0.00 0.00 61 1009.0
20260505034517 13 221 6.4 16.1 0.00 0.00 0.00 60 1008.9
20260505034006 14 218 8.0 17.7 0.00 0.00 0.00 60 1008.9
20260505033507 14 211 11.3 17.7 0.00 0.00 0.00 59 1008.9
20260505033023 14 207 11.3 17.7 0.00 0.00 0.00 60 1008.9
20260505032508 14 218 8.0 22.5 0.00 0.00 0.00 59 1008.9
20260505032007 15 227 8.0 24.1 0.00 0.00 0.00 58 1008.8
20260505031526 15 189 11.3 24.1 0.00 0.00 0.00 57 1008.7
20260505031003 15 213 12.9 29.0 0.00 0.00 0.00 57 1008.7
20260505030504 15 201 12.9 29.0 0.00 0.00 0.00 57 1008.7
20260505030012 15 209 16.1 25.7 0.00 0.00 0.00 56 1008.7
20260505025514 15 202 14.5 29.0 0.00 0.00 0.00 56 1008.7
20260505025007 15 223 14.5 27.4 0.00 0.00 0.00 56 1008.7
20260505024517 15 207 16.1 25.7 0.00 0.00 0.00 56 1008.7
20260505024010 15 211 11.3 19.3 0.00 0.00 0.00 56 1008.7
20260505023505 15 219 11.3 27.4 0.00 0.00 0.00 55 1008.7
20260505023022 15 217 14.5 27.4 0.00 0.00 0.00 55 1008.7
20260505022506 15 208 9.7 19.3 0.00 0.00 0.00 55 1008.7
20260505022010 15 219 9.7 25.7 0.00 0.00 0.00 54 1008.8
20260505021520 16 227 12.9 25.7 0.00 0.00 0.00 53 1008.7
20260505021006 16 213 14.5 25.7 0.00 0.00 0.00 53 1008.7
20260505020508 16 219 12.9 22.5 0.00 0.00 0.00 53 1008.7
20260505020023 16 218 12.9 29.0 0.00 0.00 0.00 52 1008.6
20260505015508 16 238 14.5 29.0 0.00 0.00 0.00 52 1008.5
20260505015005 15 182 14.5 27.4 0.00 0.00 0.00 54 1008.5
20260505014521 15 198 11.3 27.4 0.00 0.00 0.00 53 1008.5
20260505014007 15 216 12.9 22.5 0.00 0.00 0.00 55 1008.5
20260505013506 13 207 11.3 19.3 0.00 0.00 0.00 57 1008.5
20260505013020 13 196 9.7 17.7 0.00 0.00 0.00 60 1008.5
20260505012506 12 221 9.7 14.5 0.00 0.00 0.00 67 1008.4
20260505012010 12 219 9.7 14.5 0.00 0.00 0.00 67 1008.2
20260505011522 12 214 4.8 11.3 0.00 0.00 0.00 66 1008.1
20260505011006 13 218 6.4 12.9 0.00 0.00 0.00 65 1008.1
20260505010507 13 221 8.0 12.9 0.00 0.00 0.00 63 1008.1
20260505010023 13 195 6.4 11.3 0.00 0.00 0.00 60 1008.0
20260505005508 14 212 6.4 11.3 0.00 0.00 0.00 60 1007.9
20260505005008 14 218 6.4 9.7 0.00 0.00 0.00 59 1007.9
20260505004522 15 198 4.8 11.3 0.00 0.00 0.00 58 1007.8
20260505004008 15 218 6.4 11.3 0.00 0.00 0.00 54 1007.8
20260505003503 15 216 6.4 12.9 0.00 0.00 0.00 55 1007.7
20260505003019 16 216 6.4 12.9 0.00 0.00 0.00 52 1007.6
20260505002508 16 193 6.4 12.9 0.00 0.00 0.00 50 1007.5
20260505002008 16 236 8.0 11.3 0.00 0.00 0.00 50 1007.5
20260505001524 16 242 6.4 11.3 0.00 0.00 0.00 50 1007.4
20260505001007 17 218 6.4 14.5 0.00 0.00 0.00 51 1007.4
20260505000506 17 202 9.7 14.5 0.00 0.00 0.00 47 1007.3
20260505000031 17 221 8.0 16.1 0.00 0.00 0.00 46 1007.2
20260504235507 17 215 9.7 16.1 0.00 0.00 0.00 44 1007.1
20260504235009 18 218 8.0 12.9 0.00 0.00 0.00 45 1007.0
20260504234524 18 213 6.4 12.9 0.00 0.00 0.00 43 1006.8
20260504234010 18 213 6.4 12.9 0.00 0.00 0.00 42 1006.8
20260504233507 18 221 6.4 12.9 0.00 0.00 0.00 41 1006.7
20260504233025 19 218 6.4 14.5 0.00 0.00 0.00 40 1006.6
20260504232510 19 200 8.0 14.5 0.00 0.00 0.00 40 1006.5
20260504232010 20 201 4.8 14.5 0.00 0.00 0.00 39 1006.4
20260504231522 20 223 6.4 19.3 0.00 0.00 0.00 38 1006.3
20260504231007 20 223 11.3 19.3 0.00 0.00 0.00 37 1006.3
20260504230507 20 207 12.9 19.3 0.00 0.00 0.00 36 1006.3
20260504230024 20 219 11.3 20.9 0.00 0.00 0.00 36 1006.3
20260504225510 20 218 9.7 22.5 0.00 0.00 0.00 37 1006.2
20260504225009 20 221 11.3 22.5 0.00 0.00 0.00 35 1006.1
20260504224528 21 245 11.3 25.7 0.00 0.00 0.00 35 1006.1
20260504224009 21 221 12.9 27.4 0.00 0.00 0.00 34 1006.0
20260504223509 21 250 9.7 27.4 0.00 0.00 0.00 35 1005.9
20260504223025 21 201 4.8 25.7 0.00 0.00 0.00 36 1006.0
20260504222509 21 234 12.9 38.6 0.00 0.00 0.00 36 1006.0
20260504222008 21 249 14.5 38.6 0.00 0.00 0.00 36 1005.9
20260504221528 21 249 16.1 32.2 0.00 0.00 0.00 34 1005.8
20260504221011 21 245 16.1 30.6 0.00 0.00 0.00 35 1005.9
20260504220509 21 219 20.9 30.6 0.00 0.00 0.00 34 1005.9
20260504220024 21 244 11.3 25.7 0.00 0.00 0.00 34 1005.8
20260504215510 21 223 11.3 27.4 0.00 0.00 0.00 35 1005.8
20260504215009 21 202 9.7 35.4 0.00 0.00 0.00 34 1005.9
20260504214537 21 205 20.9 35.4 0.00 0.00 0.00 35 1005.9
20260504214012 21 231 11.3 32.2 0.00 0.00 0.00 35 1006.0
20260504213509 21 198 11.3 35.4 0.00 0.00 0.00 37 1006.1
20260504213010 21 215 19.3 38.6 0.00 0.00 0.00 34 1006.0
20260504212502 21 270 20.9 37.0 0.00 0.00 0.00 34 1006.1
20260504212005 21 189 16.1 32.2 0.00 0.00 0.00 33 1006.1
20260504211512 21 227 19.3 30.6 0.00 0.00 0.00 34 1006.1
20260504211001 21 219 17.7 30.6 0.00 0.00 0.00 34 1006.1
20260504210503 21 221 12.9 35.4 0.00 0.00 0.00 35 1006.1
20260504210007 21 232 17.7 40.2 0.00 0.00 0.00 35 1006.2
20260504205503 21 227 27.4 40.2 0.00 0.00 0.00 35 1006.1
20260504205004 21 245 11.3 40.2 0.00 0.00 0.00 35 1006.2
20260504204505 21 223 19.3 38.6 0.00 0.00 0.00 34 1006.2
20260504204004 21 210 9.7 20.9 0.00 0.00 0.00 37 1006.2
20260504203502 21 288 8.0 30.6 0.00 0.00 0.00 37 1006.3
20260504203007 21 225 12.9 30.6 0.00 0.00 0.00 36 1006.4
20260504202511 21 259 16.1 38.6 0.00 0.00 0.00 34 1006.4
20260504202004 21 215 16.1 43.5 0.00 0.00 0.00 35 1006.4
20260504201525 21 225 12.9 54.7 0.00 0.00 0.00 33 1006.3
20260504201003 21 236 32.2 54.7 0.00 0.00 0.00 33 1006.3
20260504200508 21 229 14.5 53.1 0.00 0.00 0.00 35 1006.4
20260504200005 21 269 9.7 56.3 0.00 0.00 0.00 37 1006.4
20260504195503 21 186 27.4 56.3 0.00 0.00 0.00 34 1006.2
20260504195007 21 203 19.3 35.4 0.00 0.00 0.00 35 1006.4
20260504194520 21 207 16.1 35.4 0.00 0.00 0.00 35 1006.5
20260504194003 21 257 3.2 41.8 0.00 0.00 0.00 38 1006.5
20260504193506 21 229 14.5 41.8 0.00 0.00 0.00 33 1006.5
20260504193003 21 227 17.7 37.0 0.00 0.00 0.00 36 1006.6
20260504192503 20 267 8.0 33.8 0.00 0.00 0.00 35 1006.6
20260504192007 20 156 9.7 38.6 0.00 0.00 0.00 35 1006.5
20260504191507 21 227 20.9 51.5 0.00 0.00 0.00 34 1006.7
20260504191006 21 221 19.3 51.5 0.00 0.00 0.00 36 1006.5
20260504190508 21 219 17.7 51.5 0.00 0.00 0.00 35 1006.6
20260504190015 21 198 33.8 51.5 0.00 0.00 0.00 35 1006.6
20260504185507 20 207 29.0 46.7 0.00 0.00 0.00 36 1006.6
20260504185002 20 229 24.1 46.7 0.00 0.00 0.00 34 1006.8
20260504184503 20 243 19.3 46.7 0.00 0.00 0.00 35 1006.9
20260504184003 21 232 24.1 41.8 0.00 0.00 0.00 34 1006.8
20260504183501 21 255 9.7 40.2 0.00 0.00 0.00 36 1006.9
20260504183007 21 188 16.1 37.0 0.00 0.00 0.00 35 1006.8
20260504182503 21 196 16.1 56.3 0.00 0.00 0.00 34 1006.8
20260504182013 21 237 37.0 56.3 0.00 0.00 0.00 35 1006.8
20260504181508 21 189 6.4 46.7 0.00 0.00 0.00 39 1006.8
20260504181004 21 250 33.8 46.7 0.00 0.00 0.00 33 1007.0
20260504180504 21 280 9.7 33.8 0.00 0.00 0.00 35 1006.9
20260504180028 21 242 16.1 46.7 0.00 0.00 0.00 36 1007.0
20260504175507 21 280 9.7 49.9 0.00 0.00 0.00 43 1007.1
20260504175005 20 243 30.6 49.9 0.00 0.00 0.00 35 1007.2
20260504174516 20 261 12.9 41.8 0.00 0.00 0.00 38 1007.2
20260504174007 20 265 16.1 41.8 0.00 0.00 0.00 39 1007.2
20260504173505 20 215 20.9 38.6 0.00 0.00 0.00 36 1007.2
20260504173003 20 272 12.9 33.8 0.00 0.00 0.00 37 1007.1
20260504172507 21 250 9.7 32.2 0.00 0.00 0.00 43 1007.2
20260504172001 20 87 8.0 32.2 0.00 0.00 0.00 34 1007.3
20260504171507 20 270 14.5 27.4 0.00 0.00 0.00 38 1007.4
20260504171003 19 51 8.0 35.4 0.00 0.00 0.00 39 1007.5
20260504170503 18 266 11.3 35.4 0.00 0.00 0.00 40 1007.6
20260504151010 18 223 29.0 51.5 0.00 0.00 0.00 39 1008.3
20260504150511 18 261 30.6 49.9 0.00 0.00 0.00 37 1008.3
20260504141009 17 265 22.5 48.3 0.00 0.00 0.00 41 1008.6
20260504140507 17 196 20.9 43.5 0.00 0.00 0.00 41 1008.6
20260504130511 13 191 16.1 37.0 0.00 0.00 0.00 51 1009.3
20260504110504 6 221 6.4 12.9 0.00 0.00 0.00 76 1010.3
20260504100504 4 227 8.0 11.3 0.00 0.00 0.00 85 1010.0